Theta_e
305 311 320 325 326 326 325 324 323 323 324 324 323 321 321 321 320 321 320 319 319 319
304 304 306 311 319 324 327 327 325 324 323 324 324 323 322 320 319 320 320 320 320 319
303 304 305 306 307 309 315 323 326 326 324 323 323 324 323 321 321 320 321 320 320 320
303 303 304 304 306 307 310 313 319 324 325 325 324 324 322 322 321 320 320 321 320 320
301 302 302 303 304 306 307 310 312 316 320 323 324 324 324 322 322 320 320 320 321 320
299 300 301 301 303 304 305 306 308 311 314 317 320 322 323 324 324 322 322 322 321 321
297 299 299 301 301 301 302 303 304 306 309 313 316 319 321 322 323 323 323 323 322 322
296 297 298 298 298 298 299 300 301 303 306 309 313 316 317 319 321 322 322 322 322 321
295 294 295 295 294 295 295 296 298 299 302 305 309 307 304 308 318 318 318 318 319 319
292 291 291 291 291 291 291 293 293 295 297 299 303 303 302 300 311 315 317 316 316 315
288 288 287 287 287 288 289 289 290 291 293 295 297 298 299 299 306 311 313 315 314 313
286 286 286 285 285 286 287 287 288 289 290 291 292 295 296 298 303 305 306 308 310 311
285 285 285 285 286 286 285 287 287 288 289 290 291 294 295 297 298 300 302 303 300 294
285 285 284 285 285 285 285 286 286 287 289 289 290 292 294 295 296 297 299 301 300 296
Wind_Speed
5 3 5 9 10 10 11 10 13 14 17 19 19 17 17 14 14 17 16 22 18 14
6 6 5 7 6 8 12 11 11 14 16 19 19 20 18 15 17 17 18 19 20 17
7 7 7 6 7 8 10 12 13 13 13 17 18 19 19 17 18 19 16 15 19 19
7 8 7 6 7 8 9 10 12 13 14 14 15 17 19 21 21 21 20 20 20 22
7 7 7 8 10 9 10 10 12 13 14 15 16 14 18 21 19 22 21 22 22 22
7 7 9 10 12 12 12 12 12 12 14 15 15 16 15 19 20 21 22 22 20 21
7 8 9 10 11 12 13 13 13 14 15 15 16 16 16 16 19 21 20 20 21 20
6 6 7 9 10 12 13 13 14 15 15 15 14 12 15 15 17 19 20 20 19 19
6 6 7 9 11 12 13 14 14 14 14 16 12 16 17 16 16 16 17 19 19 19
7 7 7 7 9 11 13 13 14 15 14 17 17 18 17 17 15 17 17 17 16 16
7 8 7 7 8 9 10 12 13 15 14 16 15 20 18 18 16 17 19 18 17 18
8 8 7 8 8 9 10 11 11 12 16 17 20 23 21 17 15 17 19 17 16 16
7 8 9 9 10 10 9 12 10 14 13 17 21 25 24 18 11 16 13 14 13 17
8 8 8 10 8 10 11 12 13 15 14 16 15 20 26 22 14 12 13 12 11 9
Wind_Direction
310 271 268 256 249 247 240 230 226 221 225 226 227 228 229 230 229 227 227 229 225 228
297 298 286 277 271 273 260 250 235 222 225 229 229 228 226 229 229 229 230 231 231 227
302 294 288 288 286 282 283 279 258 243 229 231 232 231 228 229 231 231 230 231 232 233
322 309 297 285 278 279 285 281 274 267 256 243 234 229 230 231 230 229 231 229 231 231
327 323 320 314 305 290 286 289 288 282 269 261 252 239 231 235 233 231 231 232 232 233
332 330 325 324 324 317 307 301 296 288 280 273 264 256 246 239 237 238 233 232 231 232
319 323 323 321 320 318 315 308 302 294 287 278 271 261 256 249 246 244 244 238 235 232
301 303 309 316 316 314 311 306 302 298 293 287 276 269 260 253 252 249 251 246 241 235
293 299 303 312 315 313 310 309 307 302 296 293 284 274 259 251 258 251 247 250 247 241
284 284 284 295 306 307 308 309 306 301 299 293 289 287 274 257 258 261 253 245 246 241
267 262 267 275 283 291 302 306 307 303 298 294 290 291 291 279 268 263 259 255 248 242
252 262 266 269 274 275 284 288 288 293 298 294 290 290 285 288 283 267 261 258 249 240
249 253 266 269 277 276 263 275 279 286 283 285 287 292 284 271 273 272 266 257 251 236
251 253 246 271 269 269 271 277 277 280 279 274 273 283 283 277 267 264 268 262 252 241